Hourly Weather Roundup
Issued by NWS Central Illinois

Home | Current Version | Previous Version | Text Only | Print | Product List | Glossary On
Versions: 1 2 3 4 5 6 7 8 9 10 11 12 13 14 15 16 17 18 19 20 21 22 23 24 25 26 27 28 29 30 31 32 33 34 35 36 37 38 39 40 41 42 43 44 45 46 47 48 49 50
000
NZUS43 KILX 280610
HWRILX

AREA WEATHER ROUNDUP
NATIONAL WEATHER SERVICE, LINCOLN IL
100 AM CDT THU JUL 28 2016


CITY           SKY/WX    TMP DP  RH WIND       PRES   REMARKS
BLOOMINGTON    CLOUDY    74  69  85 S5        29.94F
6HR MIN TEMP:  73; 6HR MAX TEMP:  81;

CHAMPAIGN      CLEAR     71  68  90 SE5       29.94F
6HR MIN TEMP:  71; 6HR MAX TEMP:  82;

DANVILLE       PTCLDY    69  69  99 CALM      29.92F FOG
6HR MIN TEMP:  69; 6HR MAX TEMP:  82;

DECATUR        PTCLDY    74  70  87 N5        29.93F
6HR MIN TEMP:  74; 6HR MAX TEMP:  83;

EFFINGHAM      MOCLDY    75  75 100 CALM      29.95F FOG
FLORA          CLOUDY    78  76  95 W3        29.93F HX  80
6HR MIN TEMP:  77; 6HR MAX TEMP:  85;

GALESBURG      CLEAR     72  71  96 CALM      29.93S
JACKSONVILLE   CLOUDY    71  68  90 CALM      29.92S
6HR MIN TEMP:  70; 6HR MAX TEMP:  83; 6HR PCP:  0.01;

LACON          CLEAR     74  69  86 CALM      29.92F
6HR MIN TEMP:  73; 6HR MAX TEMP:  83;

LAWRENCEVILLE  LGT RAIN  76  74  93 W3        29.92F FOG
6HR MIN TEMP:  76; 6HR MAX TEMP:  82; 6HR PCP:  0.03;

LITCHFIELD     NOT AVBL
$$


CITY           SKY/WX    TMP DP  RH WIND       PRES   REMARKS
LINCOLN        CLOUDY    75  73  92 CALM      29.93S
6HR MIN TEMP:  74; 6HR MAX TEMP:  84;

MACOMB         MOCLDY    70  69  96 CALM      29.95S
MATTOON        PTCLDY    73  71  93 N3        29.94F
6HR MIN TEMP:  73; 6HR MAX TEMP:  82;

MT CARMEL AP   LGT RAIN  75  73  94 CALM      29.92F
6HR MIN TEMP:  75; 6HR MAX TEMP:  80;

OLNEY-NOBLE AP CLOUDY    73  73 100 CALM      29.93F FOG
PARIS          MOCLDY    71  71 100 CALM      29.94F
6HR MIN TEMP:  71; 6HR MAX TEMP:  82;

PEORIA         CLOUDY    75  71  87 CALM      29.93F
6HR MIN TEMP:  75; 6HR MAX TEMP:  84;

PONTIAC        NOT AVBL
RANTOUL        NOT AVBL
ROBINSON       CLOUDY    75  73  95 CALM      29.93F
6HR MIN TEMP:  74; 6HR MAX TEMP:  82;

SPRINGFIELD    CLOUDY    78  75  90 CALM      29.92F HX  81
6HR MIN TEMP:  76; 6HR MAX TEMP:  84;

TAYLORVILLE    PTCLDY    74  74  98 MISG      29.92F
$$

...REGIONAL REPORTS...


CITY           SKY/WX    TMP DP  RH WIND       PRES   REMARKS
CHICAGO O`HARE PTCLDY    74  66  76 CALM      29.93F
KANKAKEE       PTCLDY    71  68  91 E3        29.93F
MOLINE         MOCLDY    74  68  81 CALM      29.91F
MOUNT STERLING CLEAR     69  67  94 CALM      29.92F
MOUNT VERNON   MOCLDY    73  70  88 MISG      29.91F
PITTSFIELD     CLOUDY    74  70  86 CALM      29.94S
QUINCY         CLOUDY    73  71  93 E7        29.92S
ROCKFORD       PTCLDY    71  67  87 CALM      29.95S
$$


CITY           SKY/WX    TMP DP  RH WIND       PRES   REMARKS
BURLINGTON     CLOUDY    74  68  81 CALM      29.93R THUNDER
CEDAR RAPIDS   CLEAR     68  68 100 NW5       29.93F
DES MOINES     PTCLDY    76  69  79 CALM      29.94F
KIRKSVILLE     CLEAR     70  68  93 CALM      29.95F
OTTUMWA        CLEAR     70  67  90 NE3       29.92F
ST LOUIS       CLOUDY    78  69  73 E5        29.92F THUNDER HX  80
$$


CITY           SKY/WX    TMP DP  RH WIND       PRES   REMARKS
TERRE HAUTE    CLOUDY    74  71  91 N3        29.93F
EVANSVILLE     CLOUDY    75  73  93 CALM      29.93S FOG
INDIANAPOLIS   CLOUDY    79  65  62 NE6       29.94F HX  81
LAFAYETTE      PTCLDY    69  68  96 CALM      29.93F
MADISON        CLOUDY    73  68  84 SE3       29.93F
MILWAUKEE      PTCLDY    71  68  90 N5        29.95S
$$






USA.gov is the U.S. government's official web portal to all federal, state and local government web resources and services.